Location: Jaite
(41.2884°N, 81.5737°W)
Time: 15:59:31
(UTC+00:00)

Cosmos 2074 Rocket - Pass Details

Date: 18 January 2020
Orbit: 966 x 987 km, 82.9° (Epoch: 20 February)

Event Time Altitude Azimuth Distance (km) Brightness Sun altitude
Exits shadow 11:02:26 10° 339° (NNW) 2,759 6.1 -19.7°
Reaches altitude 10° 11:02:31 10° 338° (NNW) 2,734 6.0 -19.6°
Maximum altitude 11:08:17 41° 271° (W) 1,384 4.3 -18.6°
Drops below altitude 10° 11:14:01 10° 203° (SSW) 2,705 6.2 -17.5°
Sets 11:16:38 0° 197° (SSW) 3,646 7.0 -17.0°
